Wind_Speed
17 18 18 17 17 17 17 17 17 17 17 17 17 18 18 18 18 18 18 18 18 19 19 20 21 21 22 23 24 24 25 26 26 27 28 29 30 30
21 21 21 21 21 21 21 21 21 20 20 20 20 20 21 21 22 22 22 21 21 21 21 22 22 23 24 24 25 26 26 27 28 29 29 30 31 32
24 25 24 24 24 24 24 24 24 24 24 23 23 23 23 24 24 24 25 25 25 25 24 24 24 25 25 26 27 27 28 29 29 30 31 31 32 33
27 28 28 27 27 27 27 27 27 27 27 27 26 26 26 26 26 27 27 27 28 28 28 28 28 28 28 29 29 29 30 31 31 32 32 33 33 34
29 30 30 30 30 30 30 30 30 30 29 29 29 29 29 30 30 30 30 30 30 31 31 31 32 32 32 32 32 32 32 33 33 34 34 34 35 36
32 31 31 32 32 33 33 33 33 33 33 32 33 33 33 34 34 34 34 35 35 35 34 34 34 35 35 35 35 35 35 36 36 36 36 37 37 37
34 34 34 35 35 35 36 36 36 36 36 37 37 37 37 38 39 40 39 39 38 39 39 39 39 39 39 39 39 39 38 38 38 38 38 38 38 39
37 37 38 38 38 38 38 38 39 39 40 41 41 41 41 42 43 44 43 43 42 42 44 43 43 42 43 43 42 42 42 41 41 40 40 40 40 40
39 40 40 40 41 41 41 42 42 43 44 45 45 45 46 46 47 47 47 47 46 46 48 47 47 46 46 46 46 46 45 44 43 43 42 42 42 41
41 42 42 43 43 44 44 45 46 47 48 49 49 49 50 50 51 52 52 52 51 51 52 51 50 50 50 49 49 48 48 47 46 45 44 44 43 43
42 42 43 44 45 46 47 49 49 50 52 53 54 54 55 55 56 57 57 57 56 55 55 55 54 54 53 52 51 51 50 49 48 47 46 46 45 45
43 44 46 47 49 50 51 52 54 55 56 58 58 59 60 60 61 63 63 63 63 61 60 61 59 60 58 56 55 54 53 52 51 51 49 48 48 47
46 48 50 52 53 55 57 58 60 61 62 63 64 64 65 66 67 68 69 69 69 67 66 66 65 65 64 61 60 59 57 56 55 54 53 52 51 50
51 52 54 56 58 60 62 64 65 67 68 69 69 70 71 71 72 72 72 73 73 72 71 71 71 70 70 68 66 63 62 60 59 58 57 55 54 53
56 58 59 61 63 64 66 68 69 70 71 72 72 73 73 74 74 74 74 74 74 73 73 73 73 73 73 72 70 68 66 64 63 61 60 59 57 56
60 62 64 65 66 67 68 68 69 69 70 71 71 71 72 72 72 72 72 73 73 71 71 72 73 73 73 73 73 71 70 67 65 65 63 62 60 58
63 64 65 65 65 65 65 66 66 66 65 65 64 64 64 64 64 65 66 67 68 67 67 69 70 72 73 72 73 72 70 69 67 65 65 63 61 59
60 60 60 60 60 60 60 59 59 59 59 58 57 56 56 55 55 56 58 59 60 60 60 61 63 66 68 69 68 68 68 67 66 65 65 65 62 59
56 55 54 54 53 52 52 51 51 50 49 48 48 48 47 47 47 47 48 50 52 53 54 55 56 59 60 60 60 62 63 63 63 64 63 63 61 59
51 50 48 47 46 45 44 42 40 40 40 40 40 40 40 41 41 41 42 43 44 45 46 47 50 52 54 54 54 55 57 58 59 59 59 60 59 59
44 43 41 40 39 38 36 35 35 34 34 33 34 34 35 35 35 36 36 37 38 38 39 40 42 45 47 48 48 47 49 53 55 55 55 55 56 57
38 36 35 35 34 32 31 31 30 30 30 31 31 31 31 31 31 31 32 32 33 33 33 34 36 38 40 41 42 42 43 46 48 50 50 50 50 51
33 32 31 30 29 27 27 27 27 28 28 28 27 27 27 27 27 27 28 28 28 28 28 28 29 31 32 34 35 35 36 38 41 43 44 45 46 46
Wind_Direction
271 274 277 279 280 282 283 284 284 283 282 282 282 283 283 282 281 280 279 277 276 275 274 272 272 271 270 268 267 265 264 263 262 262 260 259 259 258
270 273 275 277 279 280 282 283 282 282 281 279 278 279 279 279 279 278 277 276 275 274 273 272 271 271 270 269 268 266 265 264 263 263 262 261 260 259
270 272 274 275 277 278 279 280 280 280 280 278 277 276 275 274 274 275 276 276 276 275 274 272 271 270 269 269 268 267 266 265 264 263 263 262 261 260
270 271 273 274 275 276 277 277 278 278 279 279 278 277 276 275 274 273 273 272 272 273 273 273 272 270 269 268 268 268 267 266 265 264 263 262 262 261
269 271 272 272 273 273 274 275 276 277 277 278 278 278 277 276 275 274 272 271 271 271 271 272 272 271 270 269 268 267 267 266 265 265 265 264 263 262
268 270 271 272 273 273 273 274 274 275 276 277 277 278 278 277 276 275 273 273 271 271 270 270 271 271 271 270 268 267 266 266 265 265 265 264 263 263
269 270 270 271 272 273 274 274 275 275 276 276 276 275 276 276 275 274 273 272 272 272 271 270 270 270 270 269 269 268 267 266 265 265 264 264 263 263
270 270 270 271 271 272 273 274 274 275 275 275 275 275 274 273 273 273 272 271 271 271 271 270 270 269 269 269 268 267 266 265 264 264 263 263 263 263
271 271 270 270 270 271 272 273 273 274 274 274 274 274 273 273 272 272 272 271 270 270 270 269 269 268 267 267 267 266 266 265 264 263 263 262 262 262
275 273 272 272 271 271 272 272 272 273 273 273 273 273 273 273 273 272 271 271 270 270 269 268 267 266 266 265 265 264 264 264 264 263 262 262 262 261
276 275 276 276 275 275 274 274 273 273 273 273 273 273 273 273 273 272 271 270 269 269 269 268 266 265 264 264 263 262 262 262 262 261 261 261 261 261
279 278 278 278 277 276 276 276 275 274 274 274 275 274 274 273 273 272 271 271 270 269 268 267 266 264 263 262 261 260 260 260 260 260 260 260 260 260
281 280 280 279 279 278 278 278 277 277 276 276 275 275 274 273 273 272 271 270 270 269 267 266 265 264 263 261 259 259 259 258 259 259 258 258 258 258
282 282 281 281 281 280 280 280 279 278 278 277 276 275 274 273 272 271 270 270 269 268 267 265 264 263 262 260 259 257 257 256 257 257 257 257 257 257
284 283 283 282 282 281 281 280 280 279 278 278 277 276 274 273 272 271 270 269 268 267 266 264 263 262 261 259 258 256 255 254 254 254 255 255 255 256
286 286 285 284 284 283 282 281 280 280 279 278 278 277 275 274 272 271 270 268 267 266 265 263 262 261 260 258 257 255 254 253 252 252 252 252 252 253
288 288 287 287 286 285 284 283 282 282 281 281 280 278 277 275 274 272 271 269 268 266 264 263 262 261 259 258 256 255 253 252 251 250 249 249 249 250
290 290 289 289 288 287 286 285 284 283 283 282 282 281 279 278 276 275 273 271 270 268 266 264 262 260 259 257 256 254 252 250 249 248 247 247 246 247
293 292 292 291 290 289 289 288 287 286 285 285 284 283 282 281 280 278 276 274 272 271 268 265 263 261 259 257 254 252 251 249 247 246 245 245 245 244
295 294 294 293 293 292 292 291 290 290 289 288 288 287 286 285 284 282 280 278 276 273 270 267 264 263 261 258 254 249 249 248 246 245 245 244 243 243
296 296 296 296 295 295 295 295 294 294 293 292 291 290 290 289 288 286 285 283 281 278 274 269 267 265 262 259 254 250 247 246 245 245 244 243 243 242
298 298 299 299 299 298 298 298 298 298 296 295 295 295 294 294 293 290 288 286 284 281 277 273 269 267 263 259 255 250 247 244 242 243 243 242 242 242
300 300 301 301 301 301 301 302 303 302 301 300 300 300 299 299 298 297 295 292 290 287 282 275 270 266 263 258 255 251 246 242 240 241 241 241 240 240
Height
5868 5868 5867 5866 5866 5865 5864 5864 5863 5862 5862 5861 5860 5859 5858 5857 5856 5856 5856 5855 5855 5854 5853 5853 5852 5852 5852 5852 5851 5851 5851 5851 5852 5852 5852 5853 5853 5854
5862 5862 5861 5860 5859 5859 5858 5857 5857 5856 5855 5855 5854 5853 5852 5851 5850 5850 5849 5849 5848 5848 5847 5847 5846 5846 5845 5845 5845 5845 5844 5844 5844 5845 5845 5845 5846 5847
5856 5855 5854 5854 5852 5852 5851 5850 5849 5848 5848 5848 5847 5846 5845 5844 5844 5843 5842 5841 5841 5840 5840 5839 5839 5838 5838 5838 5837 5837 5837 5837 5837 5837 5837 5837 5838 5838
5848 5848 5847 5846 5845 5844 5843 5842 5841 5840 5840 5839 5838 5838 5837 5836 5836 5835 5834 5833 5832 5832 5831 5831 5831 5830 5830 5830 5829 5829 5829 5829 5828 5828 5828 5829 5829 5829
5840 5839 5838 5838 5837 5835 5834 5833 5832 5831 5830 5830 5829 5828 5827 5826 5826 5825 5825 5824 5824 5823 5822 5822 5821 5821 5821 5820 5820 5820 5820 5819 5819 5819 5819 5819 5819 5820
5831 5830 5829 5828 5827 5826 5825 5824 5823 5822 5821 5820 5819 5818 5817 5816 5815 5814 5814 5813 5813 5813 5812 5812 5811 5811 5810 5810 5810 5809 5809 5809 5809 5809 5809 5809 5809 5809
5822 5821 5819 5818 5817 5816 5815 5814 5812 5812 5811 5810 5809 5807 5806 5804 5803 5802 5802 5802 5801 5801 5800 5800 5799 5799 5799 5798 5798 5798 5797 5798 5798 5798 5798 5798 5798 5799
5812 5810 5809 5807 5806 5805 5804 5802 5801 5800 5799 5797 5796 5795 5794 5792 5790 5789 5789 5789 5789 5789 5787 5788 5787 5787 5786 5786 5785 5785 5785 5785 5785 5786 5786 5786 5787 5787
5800 5799 5797 5795 5794 5793 5791 5790 5789 5787 5785 5784 5783 5782 5780 5779 5777 5776 5774 5774 5775 5774 5773 5774 5773 5773 5773 5772 5771 5771 5772 5772 5772 5773 5773 5774 5774 5775
5788 5786 5784 5782 5781 5780 5778 5777 5775 5773 5771 5769 5768 5767 5765 5764 5762 5760 5759 5758 5759 5759 5757 5758 5758 5758 5758 5757 5757 5757 5757 5758 5758 5759 5760 5760 5761 5762
5776 5774 5772 5770 5768 5765 5764 5762 5761 5758 5755 5753 5752 5750 5748 5746 5744 5742 5741 5740 5741 5742 5740 5739 5741 5740 5741 5741 5742 5742 5742 5743 5744 5745 5745 5746 5747 5748
5763 5760 5758 5755 5753 5750 5748 5746 5744 5741 5739 5736 5734 5732 5730 5727 5724 5722 5721 5719 5720 5722 5722 5720 5721 5720 5722 5725 5724 5725 5726 5727 5728 5729 5730 5731 5732 5734
5749 5746 5742 5739 5736 5733 5729 5726 5724 5721 5719 5716 5714 5712 5709 5706 5703 5700 5698 5696 5697 5700 5701 5698 5698 5698 5700 5704 5706 5707 5708 5710 5711 5713 5714 5716 5717 5719
5733 5729 5725 5721 5718 5713 5709 5705 5701 5698 5696 5693 5691 5688 5685 5682 5679 5676 5674 5672 5671 5674 5675 5673 5674 5675 5676 5680 5684 5687 5688 5690 5692 5694 5697 5699 5700 5703
5715 5711 5707 5702 5697 5692 5687 5682 5678 5674 5670 5668 5665 5662 5659 5656 5653 5651 5649 5646 5646 5647 5648 5648 5648 5649 5650 5654 5659 5663 5666 5670 5672 5675 5678 5680 5683 5685
5695 5690 5685 5680 5675 5670 5664 5659 5654 5649 5645 5642 5638 5635 5632 5629 5626 5624 5622 5620 5620 5623 5623 5622 5622 5622 5624 5628 5632 5637 5642 5647 5651 5654 5657 5661 5665 5668
5674 5668 5663 5657 5651 5646 5640 5634 5629 5624 5620 5616 5613 5610 5607 5604 5602 5599 5596 5595 5595 5597 5599 5598 5596 5596 5598 5601 5606 5611 5617 5622 5628 5632 5635 5640 5646 5650
5653 5647 5641 5635 5629 5624 5618 5613 5607 5602 5598 5594 5591 5588 5585 5583 5581 5578 5574 5572 5572 5573 5574 5574 5573 5572 5573 5577 5583 5587 5592 5598 5604 5609 5613 5619 5627 5632
5634 5628 5622 5616 5611 5605 5600 5595 5590 5585 5580 5577 5573 5570 5567 5564 5562 5559 5556 5553 5552 5552 5552 5552 5551 5550 5551 5556 5563 5565 5569 5576 5581 5587 5593 5599 5607 5614
5616 5611 5605 5600 5595 5590 5584 5580 5575 5571 5566 5562 5559 5556 5552 5549 5547 5544 5540 5537 5535 5534 5533 5533 5532 5531 5532 5536 5542 5547 5550 5555 5561 5568 5574 5580 5588 5594
5602 5596 5591 5586 5582 5577 5572 5568 5564 5559 5555 5551 5548 5544 5540 5537 5534 5530 5527 5524 5521 5519 5518 5518 5517 5516 5516 5518 5523 5530 5535 5538 5543 5550 5557 5562 5569 5576
5590 5585 5580 5575 5571 5567 5563 5559 5554 5550 5546 5542 5538 5534 5530 5526 5523 5520 5516 5513 5510 5507 5505 5505 5504 5503 5503 5505 5509 5515 5520 5524 5528 5534 5541 5547 5553 5560
5580 5576 5571 5567 5562 5558 5555 5551 5546 5542 5537 5533 5529 5526 5522 5518 5514 5511 5507 5504 5501 5498 5496 5494 5493 5492 5492 5494 5498 5502 5507 5511 5515 5521 5528 5534 5540 5546